Stations météo

réclame
Mon MeteoGroup
Pescara, Italie (16230): Température de l'air & dewpoint: 19.06.2018 06:00:00 - 25.06.2018 06:00:00 (CEST)Pescara, Italie (16230): Vitesse du vent: 19.06.2018 06:00:00 - 25.06.2018 06:00:00 (CEST)Pescara, Italie (16230): Direction du vent: 19.06.2018 06:00:00 - 25.06.2018 06:00:00 (CEST)Pescara, Italie (16230): reduced air pressure: 19.06.2018 06:00:00 - 25.06.2018 06:00:00 (CEST)Pescara, Italie (16230): visibility: 19.06.2018 06:00:00 - 25.06.2018 06:00:00 (CEST)Pescara, Italie (16230): Quantités de précipitations: 19.06.2018 06:00:00 - 25.06.2018 06:00:00 (CEST)
Date & Time tt [°C] td [°C] ff [km/h] ff [knt] dd ppp [hPa] vv [km] rr [mm]
25.06.2018 06:00:00 - - - - - - - -
25.06.2018 05:00:00 13,0 10,9 8 4 SW 1015,2 20 0,0
25.06.2018 04:00:00 13,0 11,0 8 4 SW - 10 -
25.06.2018 03:00:00 14,0 12,0 8 4 SW - 10 -
25.06.2018 02:00:00 15,0 12,1 8 4 WSW 1016,0 10 -
25.06.2018 01:00:00 14,0 12,0 9 5 SW - 10 -
25.06.2018 00:00:00 16,0 13,0 9 5 SW - 10 -
24.06.2018 23:00:00 16,8 12,6 5 3 SW 1016,8 20 0,0
24.06.2018 22:00:00 19,0 12,0 4 2 NW - 10 -
24.06.2018 21:00:00 22,0 11,0 5 3 E - 10 -
24.06.2018 20:00:00 22,1 10,1 5 3 E 1016,5 10 -
24.06.2018 19:00:00 23,0 10,0 9 5 ENE - 10 -
24.06.2018 18:00:00 24,0 9,0 15 8 ENE - 10 -
24.06.2018 17:00:00 23,8 8,9 15 8 NE 1017,3 30 0,0
24.06.2018 16:00:00 24,0 9,0 18 10 NNE - 10 -
24.06.2018 15:00:00 24,0 7,0 15 8 NNE - 10 -
24.06.2018 14:00:00 24,2 10,5 16 9 NNE 1018,5 30 -
24.06.2018 13:00:00 23,0 13,0 18 10 NNE - 10 -
24.06.2018 12:00:00 24,0 13,0 18 10 NNE - 10 -
24.06.2018 11:00:00 23,0 12,6 9 5 NNE 1019,1 30 0,0
24.06.2018 10:00:00 23,0 12,0 9 5 N - 10 -
24.06.2018 09:00:00 20,0 13,0 11 6 SSW - 10 -
24.06.2018 08:00:00 17,8 12,1 11 6 SW 1018,8 30 -
24.06.2018 07:00:00 16,0 12,0 11 6 SW - 10 -
24.06.2018 06:00:00 14,0 12,0 13 7 SW - 10 -
24.06.2018 05:00:00 14,1 11,7 8 4 SW 1018,5 10 0,0
24.06.2018 04:00:00 14,0 12,0 11 6 SW - 10 -
24.06.2018 03:00:00 15,0 13,0 11 6 SW - 10 -
24.06.2018 02:00:00 15,5 13,2 5 3 WSW 1019,3 25 -
24.06.2018 01:00:00 17,0 13,0 9 5 SW - 10 -
24.06.2018 00:00:00 17,0 14,0 9 5 SW - 10 -
23.06.2018 23:00:00 18,3 12,7 4 2 SSW 1018,9 30 0,0
23.06.2018 22:00:00 20,0 11,0 4 2 NW - 10 -
23.06.2018 21:00:00 21,0 10,0 8 4 NNE - 10 -
23.06.2018 20:00:00 21,1 10,6 9 5 NNE 1018,0 20 -
23.06.2018 19:00:00 22,0 10,0 9 5 NNE - 10 -
23.06.2018 18:00:00 23,0 10,0 11 6 NE - 10 -
23.06.2018 17:00:00 22,8 9,3 13 7 NE 1018,7 30 0,0
23.06.2018 16:00:00 23,0 10,0 11 6 - - 10 -
23.06.2018 15:00:00 23,0 10,0 15 8 NNE - 10 -
23.06.2018 14:00:00 23,2 10,2 15 8 NE 1019,9 10 -
23.06.2018 13:00:00 23,0 10,0 18 10 ENE - 10 -
23.06.2018 12:00:00 23,0 10,0 16 9 NE - 10 -
23.06.2018 11:00:00 23,0 9,9 16 9 NE 1020,4 55 0,0
23.06.2018 10:00:00 22,0 10,0 16 9 NNE - 10 -
23.06.2018 09:00:00 22,0 15,0 5 3 - - 10 -
23.06.2018 08:00:00 19,8 15,8 13 7 SW 1020,0 55 -
23.06.2018 07:00:00 18,0 15,0 8 4 S - 10 -
23.06.2018 06:00:00 17,0 15,0 8 4 S - 10 -
23.06.2018 05:00:00 16,8 15,0 5 3 SSW 1018,8 20 0,0
23.06.2018 04:00:00 18,0 16,0 5 3 WSW - 10 -
23.06.2018 03:00:00 19,0 16,0 15 8 W - 10 -
23.06.2018 02:00:00 19,3 17,1 8 4 WNW 1018,0 10 -
23.06.2018 01:00:00 20,0 18,0 8 4 NW - 10 -
23.06.2018 00:00:00 20,0 19,0 5 3 WNW - 10 -
22.06.2018 23:00:00 20,5 19,0 5 3 WNW 1016,3 12 0,0
22.06.2018 22:00:00 21,0 19,0 8 4 WNW - 8 -
22.06.2018 21:00:00 20,0 19,0 5 3 WNW - 6 -
22.06.2018 20:00:00 20,2 19,1 5 3 NNE 1014,5 4,0 -
22.06.2018 19:00:00 21,0 20,0 26 14 NNE - 4,0 -
22.06.2018 18:00:00 24,0 22,0 22 12 NE - 4,0 -
22.06.2018 17:00:00 25,7 20,3 18 10 NE 1011,2 9 0,0
22.06.2018 16:00:00 27,0 22,0 15 8 ENE - 10 -
22.06.2018 15:00:00 29,0 19,0 13 7 ENE - 10 -
22.06.2018 14:00:00 28,4 17,7 11 6 ENE 1011,5 15 -
22.06.2018 13:00:00 29,0 18,0 16 9 NE - 10 -
22.06.2018 12:00:00 31,0 17,0 5 3 - - 10 -
22.06.2018 11:00:00 30,7 17,1 15 8 SSW 1011,8 15 0,0
22.06.2018 10:00:00 30,0 18,0 21 11 SSW - 10 -
22.06.2018 09:00:00 28,0 17,0 16 9 SW - 10 -
22.06.2018 08:00:00 26,2 17,3 5 3 WSW 1012,1 15 -
22.06.2018 07:00:00 22,0 18,0 5 3 SW - 10 -
22.06.2018 06:00:00 21,0 17,0 5 3 WSW - 10 -
22.06.2018 05:00:00 22,4 16,8 9 5 SW 1011,7 20 0,0
22.06.2018 04:00:00 21,0 17,0 5 3 WSW - 10 -
22.06.2018 03:00:00 20,0 17,0 8 4 SSW - 10 -
22.06.2018 02:00:00 20,4 17,5 9 5 SSW 1013,1 20 -
22.06.2018 01:00:00 21,0 18,0 4 2 - - 10 -
22.06.2018 00:00:00 22,0 18,0 4 2 SSW - 10 -
21.06.2018 23:00:00 23,2 17,4 8 4 W 1013,7 10 0,0
21.06.2018 22:00:00 24,0 18,0 9 5 SW - 10 -
21.06.2018 21:00:00 26,0 19,0 11 6 W - 10 -
21.06.2018 20:00:00 27,2 18,9 8 4 SE 1013,4 20 -
21.06.2018 19:00:00 27,0 19,0 8 4 ENE - 10 -
21.06.2018 18:00:00 27,0 20,0 11 6 ENE - 10 -
21.06.2018 17:00:00 28,1 19,3 15 8 ENE 1013,7 25 0,0
21.06.2018 16:00:00 28,0 19,0 18 10 ENE - 10 -
21.06.2018 15:00:00 29,0 19,0 16 9 ENE - 10 -
21.06.2018 14:00:00 27,6 19,4 16 9 ENE 1015,5 25 -
21.06.2018 13:00:00 29,0 17,0 16 9 ENE - 10 -
21.06.2018 12:00:00 28,0 17,0 15 8 ENE - 10 -
21.06.2018 11:00:00 27,9 18,5 13 7 ENE 1016,7 25 0,0
21.06.2018 10:00:00 27,0 17,0 9 5 SW - 10 -
21.06.2018 09:00:00 25,0 17,0 11 6 SW - 10 -
21.06.2018 08:00:00 22,3 16,5 8 4 SW 1017,5 25 -
21.06.2018 07:00:00 19,0 17,0 8 4 SW - 10 -
21.06.2018 06:00:00 18,0 16,0 8 4 WSW - 10 -
21.06.2018 05:00:00 17,0 16,0 9 5 SW - 10 -
21.06.2018 04:00:00 18,0 16,0 8 4 SW - 10 -
21.06.2018 03:00:00 18,0 16,0 5 3 SW - 10 -
21.06.2018 02:00:00 17,7 16,2 8 4 SW 1018,5 15 -
21.06.2018 01:00:00 20,0 17,0 4 2 SW - 10 -
21.06.2018 00:00:00 20,0 17,0 5 3 SSW - 10 -
20.06.2018 23:00:00 20,8 17,1 5 3 SW 1018,7 20 0,0
20.06.2018 22:00:00 23,0 17,0 5 3 SW - 10 -
20.06.2018 21:00:00 25,0 17,0 4 2 - - 10 -
20.06.2018 20:00:00 26,3 16,9 5 3 NE 1018,5 20 -
20.06.2018 19:00:00 28,0 17,0 8 4 E - 10 -
20.06.2018 18:00:00 28,0 17,0 11 6 ENE - 10 -
20.06.2018 17:00:00 28,0 17,3 13 7 NE 1018,5 15 0,0
20.06.2018 16:00:00 28,0 17,0 16 9 NNE - 10 -
20.06.2018 15:00:00 28,0 18,0 16 9 NNE - 10 -
20.06.2018 14:00:00 28,3 17,7 15 8 NNE 1019,5 15 -
20.06.2018 13:00:00 28,0 18,0 15 8 NNE - 10 -
20.06.2018 12:00:00 28,0 17,0 15 8 NNE - 10 -
20.06.2018 11:00:00 27,8 16,8 13 7 NNE 1019,8 20 0,0
20.06.2018 10:00:00 27,0 17,0 9 5 NNE - 10 -
20.06.2018 09:00:00 25,0 16,0 9 5 SW - 10 -
20.06.2018 08:00:00 22,4 15,4 11 6 SW 1019,8 15 -
20.06.2018 07:00:00 20,0 15,0 9 5 WSW - 10 -
20.06.2018 06:00:00 18,0 15,0 9 5 WSW - 10 -
20.06.2018 05:00:00 18,0 15,1 9 5 WSW 1018,9 30 0,0
20.06.2018 04:00:00 18,0 16,0 9 5 WSW - 10 -
20.06.2018 03:00:00 19,0 16,0 11 6 SW - 10 -
20.06.2018 02:00:00 19,3 16,3 9 5 SW 1019,1 30 -
20.06.2018 01:00:00 20,0 17,0 9 5 SW - 10 -
20.06.2018 00:00:00 21,0 17,0 9 5 WSW - 10 -
19.06.2018 23:00:00 20,0 16,9 9 5 SW 1019,2 20 0,0
19.06.2018 22:00:00 24,0 19,0 4 2 - - 10 -
19.06.2018 21:00:00 24,0 19,0 4 2 - - 10 -
19.06.2018 20:00:00 25,0 17,7 8 4 NNW 1018,2 20 -
19.06.2018 19:00:00 27,0 17,0 13 7 N - 10 -
19.06.2018 18:00:00 27,0 19,0 15 8 NNE - 10 -
19.06.2018 17:00:00 27,7 15,5 13 7 N 1017,7 20 0,0
19.06.2018 16:00:00 28,0 15,0 15 8 NNE - 10 -
19.06.2018 15:00:00 28,0 14,0 15 8 NNE - 10 -
19.06.2018 14:00:00 28,8 13,4 15 8 NNE 1018,4 20 -
19.06.2018 13:00:00 28,0 16,0 16 9 N - 10 -
19.06.2018 12:00:00 29,0 16,0 15 8 N - 10 -
19.06.2018 11:00:00 27,9 16,7 15 8 N 1018,6 20 0,0
19.06.2018 10:00:00 26,0 18,0 15 8 NNW - 10 -
19.06.2018 09:00:00 24,0 17,0 5 3 SW - 10 -
19.06.2018 08:00:00 21,9 16,6 8 4 SW 1017,8 30 -
19.06.2018 07:00:00 21,0 16,0 9 5 WSW - 10 -
19.06.2018 06:00:00 20,0 16,0 9 5 SW - 10 -

tt = Température de l'air
td = dewpoint
ff = Vitesse du vent
dd = Direction du vent
ppp = reduced air pressure
vv = visibility
rr = Quantités de précipitations

stations d'obs. à proximité